カタログに戻る

SL-8 DEB

LostLEO
NORAD 39693·DEBRIS·🇷🇺 Russia

打ち上げ Feb 12, 1991 から Plesetsk Cosmodrome

Loading…

次のパス (今後24時間)

TLE

古いSource: Space-Track

元期: Sep 3, 2025, 00:06 UTC

1 39693U 91009DG  25246.00469868 -.00000011  00000-0  41412-4 0  9998
2 39693  74.0364 159.8593 0129811 316.4018  42.6815 12.20925747507581

AllMySatでSL-8 DEBをリアルタイム追跡

Download on the App Store